[[{"header":{"parameterUnit":"m.s-1","parameterCategory":1,"la1":30.2991,"la2":30.254,"lo1":-89.0895,"lo2":-89.0444,"dy":0.0017,"dx":0.0017,"nx":28,"ny":28,"refTime":"2026-03-02T09:00:00:Z","depth":0,"parameterNumber":2,"parameterNumberName":"U-component_of_WINDS"},"data":[0,0,0,0,0,0,0,0,0,0,0,0,0,0,0,0,0,0,0,0,0,0,0,0,0,0,0,0,0,0,0,0,0,0,0,0,0,0,0,0,0,0,0,0,0,0,0,0,0,0,0,0,0,0,0,0,0,0,-2.0498,-2.0499,0,-2.0582,-2.0583,-2.0584,-2.0602,-2.0602,-2.0601,-2.0601,-2.0691,-2.0694,-2.0697,0,0,0,0,0,0,0,0,0,0,0,0,0,-2.0359,-2.0361,-2.0498,-2.0499,-2.05,-2.0582,-2.0583,-2.0584,-2.0603,-2.0602,-2.0601,-2.06,-2.069,-2.0693,-2.0697,0,0,0,0,0,0,0,0,0,0,0,0,0,-2.0429,-2.0362,-2.0497,-2.0519,-2.0521,-2.0582,-2.0583,-2.0584,-2.0603,-2.0602,-2.0601,-2.06,-2.0689,-2.0693,-2.0697,-2.0743,0,0,-2.0711,-2.0713,0,0,0,0,0,0,0,0,-2.0425,-2.0434,-2.0515,-2.0517,-2.0521,-2.0581,-2.0567,-2.0638,-2.0603,-2.0572,-2.0601,-2.06,-2.0655,-2.0662,-2.068,-2.0747,-2.0751,-2.0711,-2.0714,-2.0716,-2.0717,0,0,0,0,0,0,0,-2.042,-2.043,-2.0531,-2.0516,-2.0519,-2.0526,-2.0535,-2.0581,-2.0618,-2.0575,-2.0576,-2.0586,-2.0657,-2.0676,-2.0682,-2.0753,-2.0711,-2.0715,-2.0718,-2.072,-2.0865,-2.0867,0,0,0,0,0,0,-2.041,-2.0426,-2.0528,-2.0534,-2.0469,-2.0529,-2.0539,-2.0562,-2.0617,-2.0625,-2.0586,-2.0586,-2.0669,-2.0677,-2.0686,-2.0744,-2.0716,-2.072,-2.0723,-2.0864,-2.0866,-2.0867,0,0,0,0,0,0,-2.0407,-2.0419,-2.0525,-2.048,-2.0494,-2.0533,-2.0558,-2.0565,-2.0584,-2.0626,-2.0633,-2.0599,-2.0668,-2.0679,-2.0729,-2.0748,-2.0722,-2.0726,-2.0863,-2.0865,-2.0866,-2.0861,0,0,0,0,0,0,-2.0403,-2.0418,-2.0434,-2.048,-2.0497,-2.0565,-2.056,-2.0567,-2.0591,-2.0591,-2.064,-2.0647,-2.0668,-2.0722,-2.0734,-2.0753,-2.073,-2.0861,-2.0864,-2.0866,-2.086,-2.0863,-2.0865,0,0,0,0,0,-2.0398,-2.043,-2.0435,-2.0447,-2.0517,-2.0566,-2.0575,-2.0598,-2.0592,-2.061,-2.0638,-2.0645,-2.0744,-2.0727,-2.074,-2.0762,-2.086,-2.0863,-2.0866,-2.0859,-2.0862,-2.0865,0,0,0,0,0,0,-2.0385,-2.0436,-2.0442,-2.0489,-2.0523,-2.0569,-2.0592,-2.0601,-2.0638,-2.0637,-2.0666,-2.0677,-2.0725,-2.0749,-2.0729,-2.0811,-2.0802,-2.0808,-2.0793,-2.0796,-2.0799,-2.0792,-2.0733,0,0,0,0,0,-2.0388,-2.0421,-2.0465,-2.0502,-2.0519,-2.0553,-2.0575,-2.059,-2.0626,-2.0641,-2.0673,-2.0709,-2.0749,-2.0774,-2.0813,-2.0864,-2.0876,-2.0886,-2.0888,-2.089,-2.0894,-2.0926,-2.0931,-2.0876,-2.0876,-2.0876,0,0,-2.0393,-2.0425,-2.0445,-2.0501,-2.0529,-2.0565,-2.0564,-2.0602,-2.063,-2.0647,-2.0696,-2.0721,-2.0764,-2.0815,-2.084,-2.0836,-2.0913,-2.0894,-2.0895,-2.0898,-2.0929,-2.0934,-2.0939,-2.0878,-2.0877,-2.0877,0,0,-2.0422,-2.0449,-2.0484,-2.0512,-2.0555,-2.0577,-2.0586,-2.0631,-2.0648,-2.0697,-2.0712,-2.0747,-2.0814,-2.0845,-2.0869,-2.0913,-2.0922,-2.0926,-2.0938,-2.0969,-2.0973,-2.0977,-2.0994,-2.0999,-2.093,-2.093,-2.093,0,-2.0423,-2.0477,-2.0501,-2.0539,-2.0564,-2.0581,-2.0618,-2.0645,-2.0699,-2.0717,-2.0712,-2.0799,-2.0829,-2.0889,-2.09,-2.0919,-2.0931,-2.0919,-2.097,-2.0974,-2.0978,-2.0995,-2.1001,-2.093,-2.093,-2.093,-2.093,0,-2.0478,-2.0515,-2.0539,-2.0589,-2.0617,-2.0654,-2.0686,-2.0712,-2.0726,-2.075,-2.0802,-2.0839,-2.0887,-2.0903,-2.0916,-2.0966,-2.0962,-2.0964,-2.0956,-2.0983,-2.0999,-2.1006,-2.093,-2.093,-2.093,-2.093,0,0,-2.0497,-2.0563,-2.0571,-2.0595,-2.0645,-2.0675,-2.0715,-2.0761,-2.0783,-2.0821,-2.0856,-2.0914,-2.0916,-2.0944,-2.0962,-2.0989,-2.1024,-2.0988,-2.0989,-2.0993,-2.1082,-2.108,-2.1086,-2.1031,-2.1032,-2.1033,-2.1078,0,-2.0532,-2.0601,-2.0625,-2.0683,-2.0719,-2.0738,-2.0774,-2.0809,-2.0834,-2.087,-2.0898,-2.0938,-2.0938,-2.0955,-2.0983,-2.1013,-2.1042,-2.1011,-2.1065,-2.1067,-2.1052,-2.1095,-2.1092,-2.1133,-2.1085,-2.1086,-2.1087,0,-2.058,-2.0618,-2.0679,-2.0727,-2.0743,-2.0774,-2.0819,-2.0853,-2.0895,-2.0911,-2.0944,-2.0961,-2.1006,-2.0997,-2.106,-2.1038,-2.1063,-2.1082,-2.1084,-2.1089,-2.1077,-2.1101,-2.1146,-2.1152,-2.1096,-2.1096,-2.1095,0,-2.0589,-2.0656,-2.0701,-2.0722,-2.0778,-2.08,-2.0824,-2.0866,-2.0893,-2.0934,-2.0952,-2.0998,-2.1023,-2.1059,-2.1089,-2.1079,-2.1151,-2.1144,-2.1167,-2.1166,-2.118,-2.1178,-2.123,-2.1196,-2.1196,-2.1196,-2.1196,0,-2.0625,-2.0662,-2.0706,-2.0734,-2.0777,-2.0807,-2.0849,-2.0876,-2.0913,-2.0948,-2.0969,-2.1002,-2.104,-2.1079,-2.1103,-2.1153,-2.1165,-2.118,-2.1186,-2.1178,-2.1176,-2.1194,-2.1191,-2.1198,-2.1198,-2.1197,-2.1197,0,-2.0641,-2.0672,-2.0723,-2.0773,-2.0787,-2.0817,-2.0861,-2.089,-2.0917,-2.0961,-2.0974,-2.1016,-2.1063,-2.1097,-2.1158,-2.1175,-2.1229,-2.1235,-2.1214,-2.1217,-2.1238,-2.1236,-2.1302,-2.1313,-2.1272,-2.1273,-2.1273,0,-2.0661,-2.069,-2.0743,-2.0768,-2.0793,-2.0832,-2.086,-2.0892,-2.092,-2.0973,-2.0996,-2.1045,-2.1085,-2.116,-2.1198,-2.1245,-2.1253,-2.1273,-2.126,-2.1252,-2.1254,-2.1251,-2.1255,-2.1274,-2.1275,-2.1275,-2.1275,0,-2.0694,-2.0709,-2.0747,-2.0792,-2.0824,-2.0861,-2.0899,-2.0919,-2.0958,-2.0989,-2.1037,-2.1069,-2.1132,-2.118,-2.1232,-2.1261,-2.1275,-2.1279,-2.1287,-2.1279,-2.1265,-2.1273,-2.1219,-2.1277,-2.1277,-2.1277,-2.1276,-2.1276,-2.0713,-2.074,-2.0783,-2.0826,-2.0857,-2.0893,-2.0923,-2.0954,-2.0994,-2.1047,-2.1064,-2.1115,-2.116,-2.1231,-2.1261,-2.1302,-2.1301,-2.1313,-2.1316,-2.1318,-2.1318,-2.1259,-2.1312,-2.1312,-2.1312,-2.1312,-2.1312,0,-2.0747,-2.0776,-2.0815,-2.0867,-2.0902,-2.0912,-2.0955,-2.0984,-2.1027,-2.1068,-2.1107,-2.1164,-2.1213,-2.1255,-2.1306,-2.1331,-2.1339,-2.1343,-2.1342,-2.1348,-2.1315,-2.1303,-2.1336,-2.1336,-2.1336,-2.1336,-2.1336,-2.1336,-2.0769,-2.0816,-2.0836,-2.0901,-2.093,-2.0978,-2.1002,-2.1036,-2.1069,-2.1131,-2.117,-2.1198,-2.124,-2.1294,-2.134,-2.1352,-2.137,-2.1372,-2.1385,-2.1353,-2.135,-2.1347,-2.1336,-2.1376,-2.1376,-2.1415,-2.1415,-2.1416]},{"header":{"parameterUnit":"m.s-1","parameterCategory":1,"la1":30.2991,"la2":30.254,"lo1":-89.0895,"lo2":-89.0444,"dy":0.0017,"dx":0.0017,"nx":28,"ny":28,"refTime":"2026-03-02T09:00:00:Z","depth":0,"parameterNumber":3,"parameterNumberName":"V-component_of_WINDS"},"data":[0,0,0,0,0,0,0,0,0,0,0,0,0,0,0,0,0,0,0,0,0,0,0,0,0,0,0,0,0,0,0,0,0,0,0,0,0,0,0,0,0,0,0,0,0,0,0,0,0,0,0,0,0,0,0,0,0,0,0.63,0.6301,0,0.6359,0.636,0.6361,0.6449,0.6451,0.6452,0.6454,0.6513,0.6513,0.6513,0,0,0,0,0,0,0,0,0,0,0,0,0,0.6263,0.6263,0.63,0.6301,0.6301,0.6359,0.636,0.6361,0.6449,0.6451,0.6453,0.6454,0.6513,0.6513,0.6513,0,0,0,0,0,0,0,0,0,0,0,0,0,0.6296,0.6263,0.63,0.6352,0.6358,0.6359,0.636,0.6361,0.6448,0.6451,0.6453,0.6455,0.6513,0.6513,0.6513,0.6467,0,0,0.6513,0.6513,0,0,0,0,0,0,0,0,0.6294,0.6298,0.6344,0.6349,0.6355,0.6399,0.6369,0.6396,0.6448,0.6414,0.6454,0.6457,0.6473,0.6476,0.6482,0.647,0.6472,0.6513,0.6513,0.6513,0.6514,0,0,0,0,0,0,0,0.6292,0.6295,0.6323,0.6344,0.6351,0.6373,0.638,0.6374,0.6429,0.6417,0.6424,0.643,0.6476,0.6482,0.6484,0.6473,0.6513,0.6513,0.6514,0.6514,0.6428,0.6426,0,0,0,0,0,0,0.6282,0.6293,0.6322,0.6325,0.633,0.6372,0.638,0.6383,0.643,0.6439,0.6427,0.6433,0.6481,0.6484,0.6487,0.6438,0.6513,0.6514,0.6514,0.643,0.6427,0.6425,0,0,0,0,0,0,0.6281,0.6284,0.6319,0.6311,0.6317,0.637,0.6372,0.6382,0.6388,0.6438,0.6448,0.6423,0.6483,0.6487,0.6472,0.6441,0.6514,0.6514,0.6433,0.6429,0.6426,0.6338,0,0,0,0,0,0,0.6279,0.6283,0.6266,0.631,0.6317,0.6303,0.637,0.6382,0.6389,0.6397,0.6436,0.6445,0.6485,0.6471,0.6472,0.6442,0.6514,0.6436,0.6432,0.6427,0.6344,0.6332,0.6321,0,0,0,0,0,0.6278,0.6237,0.6264,0.6267,0.6297,0.6301,0.6305,0.6352,0.6386,0.6369,0.6401,0.6444,0.6444,0.6469,0.6471,0.6441,0.6438,0.6433,0.6428,0.6349,0.6334,0.6322,0,0,0,0,0,0,0.6187,0.6244,0.6274,0.6247,0.6269,0.6316,0.6296,0.6334,0.6346,0.6353,0.6411,0.6419,0.6397,0.6418,0.6444,0.64,0.6448,0.6443,0.6387,0.6374,0.6363,0.6358,0.6514,0,0,0,0,0,0.6164,0.6162,0.6212,0.6184,0.6193,0.6243,0.6246,0.6281,0.6305,0.6314,0.6345,0.6366,0.6372,0.6374,0.6381,0.6347,0.6358,0.6328,0.6316,0.6307,0.6302,0.6287,0.6275,0.6407,0.6407,0.6408,0,0,0.6116,0.6147,0.6142,0.6166,0.6187,0.6185,0.6249,0.6244,0.6243,0.6313,0.6302,0.6325,0.6353,0.6329,0.632,0.6345,0.6268,0.63,0.6292,0.6292,0.628,0.6268,0.6257,0.6404,0.6404,0.6405,0,0,0.6028,0.6051,0.603,0.605,0.6081,0.6115,0.6109,0.6151,0.617,0.616,0.6213,0.6213,0.622,0.6238,0.6248,0.6169,0.6209,0.617,0.6112,0.6097,0.6086,0.6077,0.605,0.604,0.6165,0.6165,0.6164,0,0.5964,0.5963,0.6015,0.6006,0.6016,0.608,0.6061,0.6077,0.6108,0.6113,0.6142,0.6154,0.6177,0.6159,0.614,0.6146,0.6143,0.6166,0.6084,0.6075,0.6068,0.6043,0.6032,0.616,0.616,0.6161,0.6161,0,0.5884,0.5882,0.5862,0.5892,0.5899,0.5885,0.5935,0.5936,0.597,0.6001,0.599,0.6021,0.6036,0.6035,0.6067,0.6022,0.6037,0.6073,0.6123,0.6049,0.6027,0.6017,0.6153,0.6154,0.6156,0.6157,0,0,0.5739,0.5799,0.5791,0.5806,0.5846,0.5846,0.5835,0.5851,0.5852,0.5871,0.5864,0.587,0.5905,0.5917,0.5952,0.5939,0.5876,0.5978,0.5979,0.5959,0.583,0.5802,0.579,0.5903,0.5902,0.59,0.5828,0,0.5659,0.5644,0.5692,0.5665,0.5665,0.5728,0.5718,0.5742,0.5771,0.5775,0.5807,0.5811,0.5856,0.5863,0.5853,0.5886,0.5851,0.5892,0.5898,0.5897,0.5889,0.5778,0.5749,0.5679,0.5819,0.5818,0.5817,0,0.5564,0.558,0.5553,0.5597,0.5599,0.5589,0.5609,0.5612,0.5641,0.5663,0.5677,0.5719,0.5712,0.5759,0.5751,0.5778,0.5783,0.58,0.5798,0.5801,0.5852,0.5778,0.5657,0.5647,0.5803,0.5804,0.5805,0,0.5462,0.5477,0.5464,0.5475,0.5525,0.5517,0.5537,0.5568,0.5576,0.5593,0.5599,0.5614,0.5623,0.5634,0.568,0.571,0.5667,0.5717,0.5685,0.5684,0.5673,0.5673,0.5552,0.5675,0.5676,0.5676,0.5676,0,0.5368,0.535,0.5419,0.5411,0.5393,0.5448,0.5428,0.5455,0.5482,0.548,0.5535,0.5532,0.5593,0.5597,0.5632,0.5621,0.5624,0.5642,0.5652,0.5637,0.5635,0.5642,0.5648,0.5673,0.5674,0.5674,0.5675,0,0.5251,0.5297,0.5287,0.5336,0.5348,0.5332,0.5374,0.5368,0.5401,0.5399,0.5401,0.5453,0.5461,0.5508,0.5526,0.555,0.5526,0.5545,0.5516,0.5523,0.5488,0.5491,0.5367,0.5354,0.5485,0.5484,0.5483,0,0.5189,0.5176,0.5224,0.5228,0.5246,0.525,0.5258,0.5312,0.5319,0.5352,0.5342,0.5355,0.5368,0.5378,0.5417,0.5432,0.5452,0.5408,0.5455,0.5441,0.5453,0.5453,0.5453,0.5398,0.5396,0.5395,0.5393,0,0.5073,0.5097,0.5107,0.5125,0.5134,0.5151,0.5171,0.5171,0.5231,0.5235,0.5245,0.5255,0.5275,0.5287,0.5309,0.533,0.5372,0.5379,0.5372,0.5357,0.5342,0.5351,0.549,0.5381,0.5382,0.5383,0.5384,0.5384,0.4982,0.4975,0.5008,0.5018,0.5039,0.5057,0.5055,0.5089,0.5098,0.5118,0.515,0.5155,0.5186,0.522,0.5238,0.5243,0.5267,0.5257,0.5255,0.5252,0.5245,0.5341,0.5247,0.5248,0.5248,0.5248,0.5249,0,0.487,0.4895,0.4904,0.4931,0.4939,0.4979,0.5004,0.5008,0.5012,0.5037,0.505,0.5061,0.5074,0.5115,0.5132,0.5128,0.5148,0.5131,0.5132,0.5136,0.5222,0.5226,0.5115,0.5115,0.5115,0.5115,0.5115,0.5115,0.4813,0.4803,0.4831,0.4832,0.4858,0.4864,0.4875,0.4892,0.4913,0.4924,0.4935,0.4962,0.4994,0.5014,0.5028,0.5039,0.5043,0.502,0.5038,0.5117,0.513,0.5142,0.5147,0.502,0.502,0.4952,0.4952,0.4951]}]]